Reflectivity
-20 -20 -20 -20 -20 -20 -20 -20 -20 -20 -20 -20 -20 -20 -20 -20 -20 -20 -20 -20 -20 -20 -20 -20 -20 -20 -20 -20 -20 -20 -20 -20 -20 -20 -20 -20 -20 -20 -20 -20 -20 -20 -20 -20
-20 -20 -20 -20 -20 -20 -20 -20 -20 -20 -20 -20 -20 -20 -20 -20 -20 -20 -20 -20 -20 -20 -20 -20 -20 -20 -20 -20 -20 -20 -20 -20 -20 -20 -20 -20 -20 -20 -20 -20 -20 -20 -20 -20
-20 -20 -20 -20 -20 -20 -20 -20 -20 -20 -20 -20 -20 -20 -20 -20 -20 -20 -20 -20 -20 -20 -20 -20 -20 -20 -20 -20 -20 -20 -20 -20 -20 -20 -20 -20 -20 -20 -20 -20 -20 -20 -20 -20
-20 -20 -20 -20 -20 -20 -20 -20 -20 -20 -20 -20 -20 -20 -20 -20 -20 -20 -20 -20 -20 -20 -20 -20 -20 -20 -20 -20 -20 -20 -20 -20 -20 -20 -20 -20 -20 -20 -20 -20 -20 -20 -20 -20
-20 -20 -20 -20 -20 -20 -20 -20 -20 -20 -20 -20 -20 -20 -20 -20 -20 -20 -20 -20 -20 -20 -20 -20 -20 -20 -20 -20 -20 -20 -20 -20 -20 -20 -20 -20 -20 -20 -20 -20 -20 -20 -20 -20
-20 -20 -20 -20 -20 -20 -20 -20 -20 -20 -20 -20 -20 -20 -20 -20 -20 -20 -20 -20 -20 -20 -20 -20 -20 -20 -20 -20 -20 -20 -20 -20 -20 -20 -20 -20 -20 -20 -20 -20 -20 -20 -20 -20
-20 -20 -20 -20 -20 -20 -20 -20 -20 -20 -20 -20 -20 -20 -20 -20 -20 -20 -20 -20 -20 -20 -20 -20 -20 -20 -20 -20 -20 -20 -20 -20 -20 -20 -20 -20 -20 -20 -20 -20 -20 -20 -20 -20
-20 -20 -20 -20 -20 -20 -20 -20 -20 -20 -20 -20 -20 -20 -20 -20 -20 -20 -20 -20 -20 -20 -20 -20 -20 -20 -20 -20 -20 -20 -20 -20 -20 -20 -20 -17 -20 -20 -20 -20 -20 -20 -18 -8
-20 -20 -20 -20 -20 4 -1 -5 -4 8 -9 -20 -20 -20 -20 -20 -20 -20 -20 -20 -20 -20 -20 -20 -20 -20 -20 -20 -20 -20 -20 -20 -20 -20 -20 -20 -20 -18 -19 -20 -20 -20 -20 -20
-20 -20 -20 -20 -20 -18 -17 -20 -20 -20 -19 -20 -20 -20 -20 -20 -20 -20 -20 -20 -20 -20 -20 -20 -20 -20 -20 -20 -20 -20 -20 -20 -20 -20 -20 -20 -20 -8 -20 -17 -20 -20 -20 -20
-20 -20 -20 -20 -20 -20 -20 -0 -18 -20 -20 -20 -20 -20 -20 -20 -20 -20 -20 -20 -20 -20 -20 -20 -20 -20 -20 -20 -20 -20 -20 -20 -20 -20 -20 -5 9 -20 -20 -20 -20 -20 -20 -20
-20 -20 -20 -19 -20 -20 -20 -20 -20 -20 -20 2 -8 -18 -20 -20 -20 -20 -20 -20 -20 -20 -20 -20 -20 -20 -15 -10 -9 3 -7 12 10 -1 3 3 -20 -20 -20 -20 -20 -20 -20 -20
-16 -10 -7 -1 -20 -20 -15 -18 -18 -20 -17 -4 8 13 -20 -20 -20 -18 -20 -20 -20 -20 -20 -20 -18 4 7 -8 8 10 21 11 -7 18 -9 -20 -20 -20 -20 -20 -20 -20 -20 -20
-16 11 11 9 21 7 2 -2 15 27 18 14 -0 -16 -20 2 8 -8 -20 -18 -20 -20 -20 -3 6 12 12 -1 21 6 1 3 6 -10 -20 -20 -20 -20 -20 -20 -20 -20 -20 -20
-20 -20 -20 -20 -12 -2 6 -18 1 3 9 19 -17 -7 -20 11 10 -20 -2 9 9 18 18 9 7 3 9 22 11 -19 -14 9 25 10 -15 3 -19 -10 -20 -20 -20 -20 -20 -20
2 -20 -20 -20 -20 -10 -17 -20 -20 -16 -20 1 2 -14 -20 -8 4 -11 -20 2 1 10 -17 -7 3 -2 -20 -18 -20 -3 -8 -15 -20 -19 -20 -20 -8 -1 -13 -14 -20 -20 -20 -20
2 -4 5 -20 -20 -17 -19 -20 -20 -20 -20 0 -13 -20 -20 -20 -20 -13 -20 -20 -20 -20 -20 -12 -3 -3 0 5 5 1 -5 -5 -7 -12 -19 -16 11 -2 -19 -13 -18 -20 -20 -20
-20 -4 4 -9 6 16 -20 -20 -20 -20 -20 -20 -20 -20 -20 -20 -20 -20 -20 -20 -20 -20 -20 -20 -20 -20 -20 -20 -20 -19 -16 -20 -20 -20 -20 -11 8 2 -13 -15 -20 -20 -11 -20
-20 -20 3 12 -2 -20 -20 -20 -20 -20 -20 -20 -20 -20 -20 -20 -20 -20 -20 -20 -20 -20 1 -20 -20 -20 -20 -20 -20 -20 -20 -20 -20 -20 -19 -14 4 9 -5 -20 -20 -5 -1 3
-20 -20 -20 -19 6 6 -20 -20 -20 -20 -20 -20 -20 -20 -20 -20 -20 -17 -20 -20 -20 -20 -20 11 10 -20 -20 -20 -20 -20 -20 -20 -20 -20 -14 4 16 5 12 -10 -20 -7 -1 -3
-20 5 7 -0 6 -3 -20 -20 -20 -20 -20 -20 -20 -20 -20 -20 -20 -20 -20 -20 -20 -20 -18 -20 -7 11 -20 -20 -20 -20 -20 -20 -20 -15 -5 9 14 12 -20 -20 -20 -20 -12 -3
-18 5 5 2 17 13 -20 -20 -20 -20 -20 -20 -20 -20 -20 -20 10 -2 -20 -20 -20 -20 -20 -20 -20 -20 -20 -20 -20 -20 -20 -20 -18 -13 -5 4 9 -7 -20 -20 -20 -20 -14 -20
-20 -20 -19 -20 -20 -20 -20 -20 -20 -20 -20 -20 -20 -20 -20 -15 15 5 2 -20 -12 -20 -20 -20 -20 -20 -5 -20 -20 -20 -20 8 -2 -3 7 4 -19 -20 -11 -20 -20 -20 -20 -20
-20 -20 -20 1 -20 -20 -20 -20 -20 -20 -20 -20 -20 -20 -20 11 12 -16 -14 -4 -20 -20 -20 -20 -20 -12 -18 -20 -20 -20 -13 -8 1 13 18 -13 -6 -3 -11 -20 -20 -20 -20 -20
-15 -19 -20 -20 -20 -20 -20 -20 -20 -20 -20 -20 -20 -20 -20 -20 -20 -20 -20 -20 -20 -20 -2 -19 -20 -20 -20 -20 -15 -11 -9 14 17 12 16 10 -3 -4 -3 -8 -12 -18 -10 -20
-20 -20 -20 -20 -20 -20 -20 -20 -20 -20 -20 -20 -20 -20 -20 -20 -20 -20 -20 -20 -20 -20 -20 -2 -20 -20 -20 -20 -17 -1 -1 4 4 11 8 -5 0 3 -3 1 -0 -20 -20 -20
Wind_Speed
10 8 14 14 13 13 9 11 14 17 7 8 13 18 17 12 11 13 14 17 19 20 18 16 15 14 13 12 14 14 14 12 9 8 7 6 6 6 6 6 7 7 7 8
8 14 18 10 11 11 13 15 17 17 14 11 18 21 19 18 17 17 16 17 20 19 19 17 16 16 15 14 14 13 13 12 8 6 5 5 6 5 6 6 7 8 8 8
21 11 2 11 12 13 15 18 16 16 15 17 22 25 26 23 22 18 18 18 20 23 21 20 19 17 15 15 15 14 14 12 8 8 7 7 7 6 6 6 6 7 8 8
16 16 19 16 15 14 19 13 15 15 10 12 3 16 14 7 15 18 21 19 18 20 21 20 19 19 17 15 14 14 13 13 10 11 9 11 7 7 6 6 6 6 7 8
5 7 15 19 20 14 12 1 8 10 11 13 16 14 3 4 12 15 15 16 17 17 19 20 19 17 16 14 13 12 12 12 11 11 9 7 6 7 6 6 7 7 6 7
20 7 7 12 8 13 3 10 9 9 10 15 15 14 21 14 9 12 4 5 9 12 14 16 17 17 15 14 13 12 12 11 10 9 8 7 9 8 7 7 6 5 4 4
15 24 19 11 10 7 16 11 7 9 9 13 2 13 17 3 6 5 2 5 7 9 12 15 18 17 16 16 15 12 13 12 10 9 8 8 9 8 8 6 4 5 4 4
7 9 20 17 26 16 19 16 9 7 12 14 7 13 5 7 4 0 3 6 4 7 9 13 17 17 17 17 15 14 14 12 10 9 9 8 9 6 6 6 5 4 5 4
4 6 1 2 14 16 11 20 16 16 18 14 13 18 9 6 5 2 3 2 4 6 9 12 15 15 16 14 15 14 14 13 12 11 9 8 7 7 7 7 6 5 5 4
2 7 2 5 5 9 14 5 12 9 8 15 17 16 11 2 3 3 4 4 2 2 6 9 12 15 13 13 12 12 13 14 13 12 10 9 9 9 8 7 7 7 6 6
5 7 6 4 5 9 10 11 7 6 12 12 15 6 8 7 9 7 9 7 5 1 5 7 10 12 11 12 13 11 11 12 13 11 10 10 9 8 8 8 7 7 6 6
1 4 9 11 5 3 5 2 6 9 14 9 11 14 8 11 7 8 8 7 9 6 3 7 10 12 12 12 11 12 12 12 12 12 12 11 10 9 8 8 8 7 7 6
2 1 8 7 6 4 3 5 5 7 5 15 13 4 4 3 7 10 12 14 12 7 1 7 11 12 13 13 13 14 13 13 12 11 12 11 11 10 8 8 8 7 7 7
4 2 2 4 8 5 3 2 2 3 4 2 6 11 16 9 15 17 17 14 15 9 4 7 10 12 13 14 15 14 14 13 13 13 12 11 10 9 9 8 8 7 6 7
4 7 9 9 9 10 9 12 11 12 11 9 8 13 16 16 10 15 15 13 14 13 9 7 11 12 15 17 17 17 16 14 14 13 12 11 8 9 8 7 7 7 7 7
9 8 10 12 12 15 17 19 17 19 19 19 16 23 15 19 11 14 15 14 16 15 14 11 9 14 16 17 16 16 15 15 14 13 10 9 8 9 8 7 6 8 7 7
12 8 7 10 7 7 12 19 21 19 17 14 17 20 14 10 11 14 11 11 12 12 9 8 7 9 11 14 13 14 14 14 14 13 12 11 10 10 9 9 8 8 8 7
11 15 9 9 7 12 13 3 8 12 13 15 16 15 13 13 10 7 9 11 12 8 5 3 4 6 9 11 13 14 14 14 13 13 13 12 12 11 10 9 8 9 8 7
18 15 10 10 12 15 18 14 8 10 14 15 16 16 14 10 7 11 3 3 2 2 1 3 4 5 8 12 12 11 12 13 14 13 13 12 12 13 11 10 10 10 8 7
20 18 13 11 14 15 19 1 4 4 14 7 7 11 10 3 9 3 4 2 2 2 3 3 2 5 8 8 12 12 13 13 13 13 13 13 12 12 12 11 10 9 8 8
16 15 18 16 16 12 15 8 7 10 0 3 3 3 3 6 4 4 1 1 1 1 1 3 3 3 6 10 12 11 11 13 12 13 13 13 13 13 12 12 9 9 8 8
14 12 12 15 13 18 6 12 14 8 5 6 7 7 6 6 2 4 5 5 4 4 3 4 6 5 5 7 9 10 11 11 13 13 14 14 14 11 11 12 10 9 8 8
11 10 9 9 12 2 13 9 14 8 8 10 10 7 6 3 3 2 2 3 3 4 4 5 5 7 7 9 9 10 10 12 13 15 14 14 14 13 12 11 11 8 8 7
12 7 11 11 14 9 12 14 9 12 12 9 9 8 6 6 6 5 4 5 5 6 6 6 7 7 7 8 8 10 12 12 14 14 14 14 14 13 12 9 8 7 7 7
11 14 17 17 11 4 12 14 16 14 11 11 10 9 8 8 6 8 8 9 8 8 8 6 7 7 8 9 10 12 14 15 14 14 13 13 11 12 11 9 8 7 6 5
14 12 13 11 11 14 15 12 16 13 15 16 13 10 10 13 10 9 7 8 8 8 7 9 9 9 9 10 11 13 14 15 14 13 11 11 10 10 10 9 7 4 6 5
Wind_Direction
195 229 236 239 233 275 266 254 262 266 251 275 259 261 264 244 234 233 224 215 206 203 183 170 173 169 168 163 161 161 155 152 154 148 139 135 122 112 102 89 73 56 40 36
192 231 258 293 278 244 251 252 251 269 274 263 268 260 257 254 231 239 222 213 210 198 181 182 176 175 177 170 168 164 161 162 162 149 118 120 124 105 104 100 82 62 48 39
243 247 12 246 242 243 235 253 261 265 291 273 264 269 251 245 241 231 226 218 210 202 187 186 184 182 178 175 172 174 168 166 163 139 138 128 123 144 146 126 98 70 65 47
261 258 251 243 244 240 262 237 255 259 263 272 103 291 285 291 216 227 226 219 215 204 193 189 187 185 181 175 173 176 170 168 165 173 165 172 176 157 109 109 96 92 69 68
210 207 217 237 244 230 269 262 236 240 249 276 251 266 312 150 227 226 224 221 218 210 197 189 190 185 180 168 172 172 175 176 175 182 185 177 154 126 129 119 120 104 91 68
254 243 249 248 245 232 263 223 243 254 256 252 243 241 273 264 309 206 64 235 228 210 199 188 184 182 176 172 164 168 174 173 169 174 170 165 142 145 144 143 129 107 85 77
232 236 230 223 216 197 202 193 227 225 210 255 249 224 244 54 51 47 201 196 195 194 191 185 184 182 176 171 168 168 170 158 159 157 148 137 133 130 123 120 97 115 105 66
228 218 205 207 229 210 206 214 228 236 246 270 200 243 263 68 73 43 282 277 203 192 189 192 187 186 179 176 166 167 164 153 147 144 135 135 138 121 113 112 112 94 74 77
243 237 178 3 235 232 244 225 245 274 275 272 258 257 218 151 173 148 70 83 174 193 199 201 192 191 187 173 171 169 158 157 155 149 142 133 124 125 118 120 119 104 119 108
297 274 159 112 185 229 244 330 216 224 240 238 258 259 258 90 4 84 92 75 88 204 202 201 193 193 182 178 166 171 170 159 152 151 145 144 138 138 141 130 120 120 118 98
239 240 152 195 217 238 194 233 232 271 237 266 270 270 6 51 57 67 56 49 37 340 214 205 198 187 182 177 176 173 164 157 158 155 150 142 140 150 140 132 130 118 115 107
123 279 257 257 63 351 60 342 266 233 237 233 275 271 56 71 57 48 38 16 1 349 253 195 195 181 182 188 170 173 173 174 169 156 147 149 148 150 152 140 131 133 131 123
49 190 244 186 193 118 39 25 350 283 274 246 250 252 111 350 353 339 335 326 328 341 250 209 194 190 196 191 188 180 180 176 165 158 158 153 161 160 152 142 133 142 136 124
61 116 337 330 28 26 128 321 62 342 275 331 264 303 294 314 307 302 300 301 310 315 279 223 210 200 205 196 194 187 185 181 163 167 169 164 166 161 154 143 139 138 131 124
203 243 205 212 211 205 235 242 225 231 236 236 266 252 273 278 264 260 276 282 270 275 272 225 223 213 204 199 197 190 184 177 176 170 164 165 158 149 140 139 136 135 127 117
200 241 233 243 232 224 246 250 246 245 244 243 256 263 268 274 277 266 259 256 260 267 274 269 245 219 208 207 202 193 180 175 165 166 159 146 146 142 139 141 141 129 121 115
204 221 213 248 227 247 257 247 242 249 238 238 237 248 273 272 269 271 271 253 263 281 284 281 256 216 202 198 190 179 169 166 162 158 152 143 142 146 136 153 151 121 121 116
207 213 222 255 231 233 252 279 285 249 242 232 248 265 277 276 283 294 297 285 293 307 301 313 249 198 186 183 176 171 172 165 158 151 147 146 143 141 147 129 144 132 128 135
226 232 238 233 243 254 272 248 218 228 254 247 248 254 273 285 287 272 50 1 12 3 349 296 287 190 169 161 168 156 158 159 154 152 152 146 149 150 145 148 156 135 141 140
217 225 225 232 238 257 259 20 219 240 260 264 260 259 266 285 273 317 66 36 80 44 358 343 358 151 150 157 151 154 159 157 158 155 144 142 149 147 151 156 151 139 145 134
192 201 215 224 242 253 261 240 172 225 81 143 211 208 207 237 299 107 142 242 296 253 273 170 139 130 153 154 157 160 159 167 152 140 138 146 148 152 155 149 145 147 145 137
188 192 211 231 240 249 163 161 211 227 169 189 204 204 223 260 206 192 221 238 236 213 184 177 163 148 144 155 159 159 169 150 145 142 146 147 151 156 152 147 146 144 138 151
209 204 200 208 217 154 179 202 210 195 205 208 220 229 261 278 249 241 227 211 199 213 181 177 169 160 166 173 168 158 145 145 145 147 146 149 155 154 152 153 147 147 161 164
225 226 225 212 234 206 202 217 216 210 218 220 216 233 222 199 194 207 227 198 191 187 188 177 168 169 166 170 169 148 148 145 146 147 157 157 158 155 160 156 162 163 174 175
224 184 218 235 243 266 240 232 227 223 225 232 232 223 223 213 217 209 209 212 202 177 168 186 181 176 172 165 160 157 153 153 154 154 161 160 160 165 160 165 171 176 178 183
248 224 209 224 210 221 241 230 222 221 222 223 230 217 231 223 222 214 203 207 201 183 183 179 177 175 170 170 163 160 160 162 158 159 161 162 162 164 162 161 148 94 131 142